RH
19 15 14 15 17 20 21 22 23 23 24 27 31 34 36 38 41 44 46 47 48 49 49 48 47 47 47 49 49 50 52 54 56 58 57 57 54 51 48 44 40 38 32 27 25 23 21 20 19 17 16 15 13 13 12 11 11 10 10 9 9 8 9
16 14 15 17 20 22 24 24 24 24 25 28 32 36 38 40 43 45 48 50 50 51 52 51 50 50 51 54 54 54 56 57 59 61 59 58 55 49 46 43 40 37 33 28 24 22 21 21 20 18 17 16 14 13 13 12 11 11 10 10 9 9 8
15 15 17 19 22 24 25 25 24 24 25 28 32 37 39 41 43 46 48 50 52 53 54 53 53 53 55 56 55 55 57 60 62 63 61 57 53 48 44 42 41 39 34 29 25 23 22 22 21 19 18 17 15 14 14 12 12 12 12 11 10 10 9
15 17 19 21 24 25 26 25 25 24 25 27 32 37 40 41 44 45 47 49 51 52 53 53 52 53 55 55 54 55 60 64 65 63 60 55 50 47 45 43 42 40 37 33 28 24 23 23 23 20 18 18 17 15 16 16 14 15 15 14 14 12 10
16 18 21 23 25 27 27 27 26 25 25 27 31 36 40 43 44 45 47 48 49 50 51 51 50 51 53 55 56 59 64 66 65 62 58 53 50 48 47 45 43 41 39 35 30 26 25 24 24 22 19 20 21 19 19 20 19 18 18 18 18 17 14
17 20 22 24 26 28 29 28 27 26 26 27 30 35 39 43 44 46 47 47 48 49 49 49 49 50 53 57 61 65 67 66 64 60 57 54 52 51 50 48 45 43 40 36 32 28 25 25 27 26 22 22 26 24 22 22 21 21 22 21 20 19 18
19 21 23 24 26 29 30 30 29 28 28 28 29 33 37 40 43 45 46 47 47 48 49 50 50 52 58 63 67 68 67 65 63 60 57 56 56 55 53 50 47 43 40 37 33 30 28 29 33 32 27 25 29 29 26 26 27 24 23 23 23 23 22
20 22 24 25 27 29 30 30 30 29 30 29 30 32 35 38 41 42 43 45 47 48 48 49 52 57 64 69 70 70 68 65 63 61 59 59 60 59 55 51 47 43 41 40 37 34 33 35 38 37 33 30 31 32 30 33 35 29 25 25 26 24 24
22 23 25 27 28 30 30 31 31 32 32 31 31 33 35 37 39 40 42 43 45 46 48 51 58 65 71 74 73 71 68 66 65 64 61 61 62 60 55 50 47 46 47 47 44 41 39 42 43 42 38 33 33 36 36 37 38 35 34 36 33 25 24
23 25 27 28 29 31 32 32 33 34 34 34 34 35 35 36 38 41 42 43 44 45 49 56 64 71 73 73 70 68 66 65 65 65 65 64 62 57 51 47 46 47 51 52 49 46 47 50 49 45 44 38 35 40 43 43 45 44 43 46 42 30 26
25 27 29 29 30 32 32 33 34 36 37 36 37 38 38 38 39 40 40 41 42 44 50 59 66 69 68 66 65 65 64 64 65 67 68 67 61 55 52 52 51 50 49 48 46 44 45 49 47 45 47 44 40 46 55 61 65 62 56 56 54 43 34
27 29 30 31 32 33 34 34 35 38 39 37 38 40 41 42 42 43 42 42 45 51 59 66 67 67 66 65 65 64 64 65 68 70 72 67 59 55 57 63 68 69 66 62 55 46 42 44 46 45 46 47 49 57 67 74 76 71 66 65 64 59 48
28 30 31 32 32 33 34 34 36 38 39 38 38 39 42 44 45 46 46 47 54 63 70 72 70 68 67 67 67 66 67 68 70 73 72 65 57 56 59 64 70 78 83 81 74 62 50 49 55 55 51 53 61 65 68 71 68 66 70 74 77 80 73
29 31 32 33 34 34 34 34 36 38 38 39 39 40 43 45 45 48 51 58 68 74 76 75 73 69 68 69 69 69 70 72 75 76 71 60 55 56 58 60 64 71 79 84 87 84 72 68 75 75 65 63 69 68 65 68 67 68 78 88 95 98 89
31 32 33 35 36 35 35 35 37 38 39 39 40 42 43 44 46 52 59 69 77 80 79 77 74 72 71 70 70 71 74 78 81 78 68 58 56 58 59 62 66 71 76 80 87 93 92 91 95 92 83 78 80 79 79 85 89 90 95 100 99 94 84
33 34 35 36 38 37 36 36 38 39 40 41 42 44 44 44 49 58 68 77 82 81 79 77 75 73 72 70 72 74 79 84 86 79 66 56 54 56 58 61 67 76 83 86 89 94 97 99 99 98 96 94 94 95 95 98 101 99 99 100 96 87 78
34 36 37 37 39 39 38 37 39 40 41 42 43 43 44 46 54 65 74 80 82 82 80 78 76 74 72 72 74 78 83 90 90 80 67 60 57 57 56 58 66 76 83 88 94 97 99 100 100 100 101 99 99 99 99 101 101 98 97 98 96 85 71
35 38 40 40 40 41 40 38 39 41 41 41 42 43 45 50 60 69 76 80 83 84 82 78 76 75 74 74 77 82 87 91 92 84 75 73 76 75 70 71 78 81 78 77 82 87 90 94 98 101 100 96 92 93 97 102 101 96 97 99 97 91 81
36 40 42 43 42 42 42 41 40 41 41 40 41 43 47 54 63 72 78 82 84 83 79 76 74 74 76 78 82 85 87 91 97 93 82 82 90 88 80 81 86 85 77 70 68 70 74 80 87 94 96 92 87 87 95 102 101 98 100 102 99 97 97
39 42 44 45 44 43 45 44 42 41 40 40 41 44 49 56 65 74 80 84 84 80 76 74 73 74 79 83 85 87 90 97 102 95 84 87 95 91 84 87 88 82 76 69 62 61 63 65 70 76 81 83 82 82 87 92 94 94 94 94 91 88 92
40 43 45 47 47 45 47 47 45 42 40 40 42 45 50 56 64 75 83 85 83 79 75 73 73 76 81 84 87 90 94 99 102 97 90 91 95 95 95 97 88 75 70 68 63 62 64 64 65 66 67 69 70 69 70 71 75 79 80 83 87 86 87
41 45 47 49 49 48 49 50 48 45 42 42 43 45 50 57 66 78 87 87 82 78 76 76 77 78 81 84 88 92 94 95 101 102 95 88 91 97 96 88 76 68 68 70 69 71 73 71 69 64 60 61 60 59 63 67 70 75 80 85 90 92 93
41 46 49 51 51 50 52 53 52 49 46 45 45 46 50 57 67 80 89 89 83 79 80 81 80 81 85 90 92 93 93 94 97 100 94 83 80 80 75 69 67 68 72 75 76 77 77 74 71 62 53 54 57 59 63 67 68 71 75 78 80 85 90
41 46 51 53 52 52 54 55 54 52 50 48 48 48 51 58 67 77 86 89 87 87 88 88 88 91 94 95 95 95 96 95 94 96 95 83 70 63 62 65 68 70 74 78 80 79 77 76 74 66 57 55 58 60 62 66 69 74 77 78 79 82 87
41 47 53 54 53 52 54 56 56 55 53 52 52 53 57 61 65 73 82 90 95 97 97 96 97 99 99 99 99 98 97 96 94 95 94 82 66 60 61 64 66 70 76 79 79 77 75 74 73 70 64 60 59 60 65 74 82 85 86 88 90 88 88
42 47 54 56 54 52 53 56 59 58 56 57 59 62 67 69 71 78 87 96 100 101 100 99 100 102 103 103 103 101 99 97 98 99 95 81 67 61 60 61 66 72 77 78 78 75 73 72 71 69 66 64 65 70 81 92 99 96 94 100 103 97 90
43 48 55 57 55 53 53 56 61 63 61 60 61 63 66 70 77 85 92 96 98 96 95 96 98 99 100 100 99 100 101 101 102 104 101 88 72 64 64 67 73 79 83 85 84 81 77 76 75 73 70 72 79 88 97 104 104 98 96 101 105 100 93
44 49 58 61 58 55 54 56 62 65 63 60 58 57 58 63 71 80 87 91 91 89 88 89 91 93 93 93 93 95 97 98 99 100 101 93 79 68 66 71 76 82 86 88 86 83 80 79 78 76 75 79 89 99 104 106 103 99 98 101 102 101 99
45 49 57 60 60 57 54 55 61 64 64 64 62 57 55 55 57 63 69 75 77 79 80 83 86 87 88 88 90 91 92 94 94 95 98 98 87 71 62 64 70 76 83 88 89 86 84 83 81 79 80 89 98 104 105 103 101 100 100 101 102 100 99
46 48 55 59 59 57 55 57 62 67 71 74 74 72 68 66 65 63 59 58 65 74 81 85 87 88 90 91 92 93 93 94 94 94 98 103 98 80 64 60 65 73 83 91 94 92 90 89 86 84 89 99 104 104 102 101 101 102 100 101 103 100 90
48 52 62 69 69 64 63 64 67 72 79 83 85 84 81 80 82 77 59 50 60 76 86 92 93 93 96 98 98 97 97 96 96 95 96 100 102 91 72 60 62 71 82 90 95 95 93 92 89 90 98 104 102 101 103 102 101 102 101 100 101 97 87
50 54 67 80 82 75 70 70 72 77 85 90 93 92 87 84 87 81 63 54 63 75 83 92 98 98 100 101 100 100 100 99 99 100 98 98 102 98 82 65 59 66 78 89 95 96 94 93 93 97 104 104 99 99 103 104 102 102 100 98 98 95 91
53 55 65 81 90 86 78 76 77 82 89 95 98 100 95 86 81 76 68 65 71 75 77 85 96 102 105 105 103 103 103 102 102 103 102 100 102 102 92 73 60 62 75 88 96 97 95 95 98 102 105 100 96 98 101 101 104 106 102 98 97 96 96
55 57 63 75 87 92 88 84 84 88 95 100 103 105 100 86 74 72 73 72 74 76 75 78 87 98 105 107 105 103 102 100 100 101 102 102 103 104 99 83 64 60 72 87 96 99 98 97 100 104 101 94 94 100 100 97 101 105 101 96 95 96 98
50 54 61 72 83 88 88 86 87 91 97 101 102 101 92 78 70 72 75 74 74 76 76 75 77 85 95 102 103 101 99 99 99 98 98 100 102 104 104 91 70 60 68 84 94 98 99 100 103 104 98 91 92 99 100 95 97 99 94 92 95 97 96
45 48 57 73 86 88 84 83 87 91 94 95 92 88 80 72 70 73 75 76 78 78 78 77 77 80 87 95 100 101 100 101 101 98 97 99 100 102 105 99 79 62 64 81 94 98 100 103 105 104 98 92 92 98 99 95 95 96 94 94 97 97 98
Wind_Speed
52 52 51 50 48 47 46 45 45 45 44 43 42 41 41 42 42 43 43 43 43 43 44 45 45 45 45 46 47 47 47 47 48 48 48 48 49 49 50 52 54 59 61 59 57 57 59 61 62 62 61 61 61 62 63 64 63 64 66 68 69 70 71
51 50 49 48 47 46 45 44 44 43 43 42 41 41 41 41 42 42 43 43 43 44 44 45 45 45 46 46 47 47 47 48 48 48 48 48 49 49 50 52 54 57 61 61 58 57 59 62 63 62 62 62 61 61 62 62 62 61 61 63 66 68 70
49 48 48 47 46 45 44 44 43 43 42 41 41 40 40 40 41 42 42 43 43 44 45 46 46 46 46 47 48 48 48 48 47 47 47 47 48 49 51 52 54 57 60 61 60 59 60 63 63 62 62 61 59 59 59 58 58 58 57 58 60 63 67
47 47 46 45 45 44 44 43 43 42 42 41 40 40 40 40 41 41 42 43 43 44 45 46 46 46 47 47 48 48 47 47 46 46 47 47 48 50 51 52 54 56 59 61 62 61 61 63 63 62 61 59 56 54 54 54 54 54 54 54 54 57 61
46 46 45 45 44 44 43 43 42 42 41 40 40 40 40 40 40 41 42 43 44 45 45 46 47 47 47 47 47 47 46 45 45 45 46 47 48 50 51 53 54 56 57 60 62 62 62 62 61 59 57 54 53 51 50 50 50 51 51 51 51 53 55
46 45 44 44 44 43 43 42 41 41 40 39 39 39 40 40 40 41 42 43 44 45 45 46 46 46 46 46 46 45 45 44 44 45 46 47 48 50 52 53 54 55 56 58 60 61 61 60 58 56 54 51 49 48 48 48 47 47 47 49 50 51 51
45 44 44 43 43 43 42 42 41 40 40 39 39 39 39 39 40 41 42 43 44 44 45 45 45 45 45 44 44 44 44 44 44 45 46 47 48 50 51 52 53 53 54 55 57 58 58 56 55 53 51 48 46 46 46 45 46 45 44 45 48 50 49
45 44 43 43 43 43 42 42 41 39 39 38 38 38 39 39 40 42 42 43 43 44 44 45 44 44 43 42 43 43 43 44 44 45 46 46 48 49 50 51 52 51 51 52 53 54 54 53 52 51 49 47 45 45 44 41 43 46 44 43 44 46 47
44 43 43 43 43 42 42 41 40 39 38 38 38 38 39 40 41 42 42 43 43 44 44 43 43 42 41 41 41 42 42 43 43 45 46 46 47 48 49 49 48 48 48 49 50 51 50 50 51 49 47 46 45 45 44 41 41 44 44 42 42 43 43
44 43 43 43 43 42 41 40 40 38 38 38 38 39 40 41 41 42 43 43 44 44 43 42 41 40 40 40 41 41 41 42 42 43 45 45 46 47 47 47 46 46 46 46 47 48 47 48 49 47 46 46 44 43 43 41 40 42 41 40 42 42 39
44 43 42 43 43 42 41 39 39 38 37 37 38 39 40 42 42 43 43 44 44 43 42 41 40 39 40 40 40 41 41 41 41 42 43 44 45 45 44 44 45 45 45 45 47 47 46 47 47 45 44 44 43 42 41 39 38 39 39 37 39 40 37
43 42 42 42 42 41 40 39 38 38 37 37 37 37 39 41 43 44 44 44 43 42 41 41 40 40 40 40 41 41 41 41 41 41 42 42 42 41 40 39 40 42 43 45 47 47 47 46 45 43 41 39 39 38 36 35 34 34 35 33 33 36 35
43 42 42 42 42 41 40 38 37 37 37 37 36 36 37 40 43 45 45 44 43 41 41 41 41 41 41 40 41 40 40 41 41 41 41 40 39 39 38 38 37 38 41 43 46 48 48 46 44 43 38 33 31 32 32 31 30 29 29 29 28 30 31
42 42 41 41 41 41 40 37 37 37 37 37 36 35 36 40 43 44 44 43 42 42 41 41 41 42 41 40 40 40 40 40 40 39 39 39 39 39 38 38 38 38 39 40 42 45 46 44 42 42 39 32 27 28 29 28 27 26 25 27 28 29 30
42 41 41 41 41 41 40 37 37 37 37 36 36 35 37 39 42 43 43 43 42 41 41 41 41 41 41 40 40 39 38 38 38 38 39 39 39 38 37 37 37 38 38 38 38 40 42 41 39 38 36 31 26 27 28 28 30 30 30 33 34 33 32
42 41 40 40 40 41 40 37 36 37 37 36 35 35 37 39 40 42 42 42 41 40 40 40 40 41 41 40 39 37 36 36 37 40 42 41 39 38 37 37 36 35 35 35 36 37 37 37 36 34 32 30 30 31 33 34 37 38 38 40 41 40 37
42 40 40 40 40 40 40 38 36 36 36 35 35 35 37 38 39 41 42 41 40 39 39 39 39 40 40 39 37 36 34 34 37 40 42 41 39 38 37 37 36 34 34 33 34 35 35 35 34 34 34 34 35 35 35 36 39 40 40 42 44 44 43
42 40 39 39 40 40 40 38 36 36 36 35 34 35 36 37 39 40 41 40 39 38 38 38 39 39 39 38 36 34 34 35 36 38 38 38 38 37 37 36 36 37 37 35 35 35 37 38 39 39 40 40 40 39 37 38 40 41 41 43 45 46 45
42 41 39 39 39 40 40 39 37 36 36 34 33 33 35 36 38 40 40 40 39 39 38 38 38 38 37 36 34 34 35 35 34 35 36 37 36 37 38 37 37 39 40 39 38 37 38 40 41 43 44 43 43 42 41 42 43 43 44 47 48 47 47
42 41 39 38 39 39 39 40 38 36 36 35 32 32 33 36 38 39 40 40 40 39 38 38 37 36 34 34 34 34 35 34 33 34 35 35 36 38 39 39 40 42 42 43 42 39 38 38 39 41 44 45 45 45 44 44 44 46 47 49 51 50 51
41 41 40 38 38 38 38 39 39 37 36 35 33 31 32 35 37 38 40 42 41 40 39 38 37 35 34 34 34 34 34 35 34 32 31 34 37 38 38 40 43 44 44 43 42 40 38 37 36 36 38 41 43 44 43 43 44 45 47 49 51 52 53
41 41 40 38 37 37 38 38 39 38 36 35 34 32 32 33 35 37 40 43 42 41 39 38 36 35 34 34 34 34 34 35 34 32 33 37 39 39 40 43 45 45 43 42 41 39 37 35 34 34 33 35 37 38 39 40 40 41 44 45 47 49 51
41 40 39 37 36 36 37 38 39 38 37 35 34 32 31 31 34 36 40 43 43 41 39 37 37 36 36 35 35 35 36 36 37 37 37 38 39 41 43 45 45 44 43 42 40 38 36 34 33 33 32 32 33 34 36 37 38 40 43 45 46 47 49
40 40 39 37 36 35 36 37 38 37 36 35 34 33 31 31 33 36 39 42 42 41 39 39 38 37 36 36 36 36 36 38 39 39 39 38 39 41 42 43 42 42 42 41 39 37 35 33 33 33 32 33 34 35 36 39 40 42 44 46 47 48 49
40 39 39 37 36 34 34 36 36 35 35 34 34 33 32 32 34 35 37 39 40 40 39 39 38 36 35 36 36 36 37 38 39 40 40 39 39 39 40 41 41 42 41 40 39 36 33 32 33 34 34 34 35 37 39 41 44 46 47 49 50 49 48
40 39 38 37 36 35 34 34 34 34 33 33 33 33 33 34 35 35 36 38 38 38 38 37 35 33 33 33 34 36 38 39 39 39 40 39 38 38 39 40 40 40 41 40 39 37 35 33 33 33 34 35 36 38 41 43 46 47 46 46 45 45 43
39 39 38 37 36 35 35 34 33 32 31 30 31 31 31 32 33 34 35 36 36 36 36 33 31 30 31 32 33 35 36 37 37 37 38 39 39 38 38 39 39 40 41 41 41 40 38 35 34 34 35 36 37 39 40 42 43 41 37 33 33 34 33
38 38 38 38 37 36 35 33 32 31 30 29 29 29 29 30 31 32 33 34 34 34 32 29 28 29 30 31 31 32 33 34 34 35 35 36 36 37 38 38 39 40 41 41 41 39 37 35 34 34 34 36 37 37 37 37 34 31 27 24 24 25 25
38 37 37 38 37 36 35 33 31 31 30 30 30 31 31 32 32 33 34 33 32 30 28 28 29 30 31 30 30 31 31 32 33 34 34 33 34 35 36 36 38 38 39 39 39 37 36 34 33 33 34 35 35 35 33 29 27 25 22 21 21 20 19
39 38 38 38 38 37 36 35 33 32 31 31 32 33 34 35 36 37 38 36 34 32 31 30 31 32 31 31 31 30 31 32 32 33 32 32 33 33 34 35 36 37 37 37 37 35 34 33 32 32 33 34 33 31 27 25 23 22 20 19 18 17 16
38 39 39 39 39 38 37 36 35 34 33 32 32 32 34 34 36 39 41 39 36 35 35 33 33 33 33 32 32 31 31 32 32 32 32 32 32 32 32 33 34 36 36 36 35 34 33 32 32 32 32 32 31 28 24 22 22 21 19 18 16 16 16
35 37 38 38 38 38 38 37 36 35 34 34 33 33 34 34 35 39 42 40 37 36 36 36 35 35 34 34 33 32 32 32 33 33 33 32 31 31 31 32 33 34 35 34 33 33 32 31 31 31 30 30 29 25 22 21 21 20 19 17 16 16 17
32 34 37 38 37 37 37 37 36 36 35 35 35 35 36 37 36 38 40 39 37 37 37 37 37 36 35 35 34 33 32 32 33 33 33 32 32 31 30 30 31 32 33 33 32 32 31 30 30 30 29 28 27 23 21 21 20 20 19 18 17 17 18
30 31 34 35 36 36 36 36 36 36 36 36 36 36 38 40 39 38 39 39 38 38 37 37 37 36 36 36 35 33 32 32 32 32 32 32 31 31 30 30 30 31 32 32 31 30 30 29 28 28 27 27 25 22 21 22 21 21 20 19 19 18 17
30 30 31 33 34 35 35 35 35 35 35 36 36 36 39 41 40 38 38 38 39 39 38 37 37 36 35 35 35 34 33 32 32 32 32 31 31 31 30 29 29 30 30 30 30 29 28 28 27 26 26 26 23 21 22 23 22 22 22 21 20 19 18
32 31 31 31 33 35 35 34 34 34 35 35 35 37 39 41 40 39 39 38 39 39 39 38 37 36 35 35 35 34 34 33 32 32 32 32 31 30 29 29 28 29 29 29 28 28 27 26 26 25 25 25 23 21 22 24 24 24 23 23 22 21 20
Wind_Direction
306 305 304 302 301 300 298 295 293 292 290 288 285 283 280 277 274 273 271 270 269 269 270 270 271 272 273 274 275 276 278 280 281 283 284 286 286 286 286 286 285 286 285 284 284 284 283 283 282 280 279 277 275 274 273 271 267 264 261 259 256 254 252
305 304 303 302 301 299 297 296 294 292 290 287 285 282 279 276 274 273 272 271 271 271 271 271 272 273 274 275 277 278 280 281 283 285 285 286 287 286 285 285 285 285 286 286 285 284 283 283 282 281 280 279 276 274 273 272 270 267 264 261 258 255 252
305 304 303 301 300 299 298 296 295 292 290 288 285 282 279 277 275 274 272 272 272 272 272 272 273 275 276 277 278 280 282 283 285 286 287 287 286 286 285 285 285 285 286 287 286 285 284 283 283 282 281 280 278 276 275 273 271 270 268 265 261 259 255
304 303 302 301 300 299 298 297 295 293 290 288 285 282 280 278 276 275 274 273 272 272 272 273 274 276 277 278 280 281 283 285 287 287 287 287 286 286 285 285 285 285 286 287 286 286 285 284 283 281 280 280 279 277 276 275 273 271 270 268 265 262 259
304 303 302 301 300 299 298 297 296 293 290 288 285 282 280 279 277 276 274 273 273 273 273 274 275 276 278 279 281 284 285 287 287 287 287 286 286 285 285 285 285 285 286 286 286 286 285 283 282 281 280 281 281 279 276 275 273 272 271 270 267 265 261
305 304 303 302 301 300 299 297 295 293 291 288 285 282 280 279 278 276 275 274 274 274 275 276 277 278 280 282 284 286 287 288 288 288 287 287 286 286 285 285 285 285 285 285 285 285 284 282 282 282 281 281 282 281 278 275 273 271 270 270 269 266 263
305 304 303 302 301 300 299 297 296 294 291 289 285 283 281 280 279 277 276 275 275 276 276 277 279 280 282 285 286 288 288 289 289 288 287 286 286 286 285 285 285 285 284 283 283 282 282 281 282 283 282 282 282 281 279 278 276 272 268 267 268 268 266
305 304 303 302 301 299 298 297 296 294 292 289 286 284 282 281 279 277 277 277 277 277 278 279 281 283 285 287 288 289 289 289 289 288 287 286 286 287 286 286 285 284 282 281 280 280 280 281 281 282 282 282 281 280 279 278 278 276 272 268 267 267 268
305 304 303 302 300 299 298 298 297 295 293 290 288 286 283 281 279 279 279 278 278 278 279 281 283 286 288 288 288 288 288 288 288 287 287 287 287 287 286 285 284 282 280 279 279 279 280 280 280 280 281 281 280 280 280 279 277 277 276 275 271 266 267
305 304 303 301 300 299 298 298 298 296 294 291 289 287 284 282 280 279 278 278 278 278 280 282 284 286 286 285 286 287 287 287 287 287 287 288 288 287 286 283 280 277 276 276 277 277 277 276 276 278 279 280 280 281 281 281 279 277 277 278 276 270 266
305 304 302 301 300 299 298 298 297 296 293 291 289 287 286 284 282 280 279 279 279 281 283 286 287 287 287 287 288 289 289 289 289 289 290 290 290 288 286 283 280 278 278 277 277 275 274 274 274 276 277 279 281 282 281 280 280 279 278 278 278 275 270
304 303 302 301 301 300 299 298 297 295 292 290 287 286 285 284 283 282 281 281 283 285 288 290 290 290 290 290 291 292 292 292 292 292 292 292 289 285 281 280 280 281 281 280 279 279 278 278 279 279 278 279 280 279 277 276 275 276 278 278 278 278 274
304 303 303 302 301 300 299 298 296 294 291 289 287 285 283 282 281 281 282 284 286 288 290 291 291 291 291 292 293 294 294 294 294 294 293 291 285 279 276 275 275 275 276 277 278 280 281 283 285 285 283 281 277 274 271 271 272 273 275 276 275 276 275
304 304 303 302 301 300 299 298 296 293 291 289 287 285 282 280 279 281 283 285 288 289 290 290 290 291 292 293 293 294 295 295 296 295 292 287 281 276 274 274 274 272 272 271 272 276 280 282 283 284 285 283 278 276 276 278 278 276 275 276 276 274 270
304 304 303 302 301 300 299 299 296 293 291 289 287 284 281 279 279 281 283 284 286 287 288 289 289 290 291 292 293 295 296 297 296 292 287 283 278 276 275 274 273 273 272 270 269 269 272 276 278 281 284 285 284 283 283 285 285 281 279 279 278 273 267
304 304 303 302 301 300 300 299 297 294 292 289 287 283 280 279 279 280 281 283 284 286 287 288 289 290 291 292 294 296 297 297 293 289 286 282 278 275 274 272 272 271 271 270 270 270 272 275 277 277 277 278 279 279 279 281 280 277 277 278 277 274 269
304 304 303 302 301 300 300 300 298 294 291 289 286 283 281 280 279 279 280 282 284 286 287 288 289 290 291 293 295 297 297 294 290 289 288 285 281 278 276 275 273 272 269 266 266 267 268 268 268 266 264 264 264 265 269 273 273 273 274 276 276 275 272
304 304 304 303 302 301 302 302 300 295 291 289 287 284 282 280 280 280 281 283 285 286 287 288 289 290 292 294 296 296 293 291 290 289 287 284 282 281 280 279 277 275 272 269 265 262 259 257 255 255 255 256 256 256 258 262 265 268 270 271 272 274 275
304 304 304 303 303 303 303 303 301 297 293 291 288 285 283 282 281 282 283 285 286 286 287 289 289 290 292 295 295 293 291 291 291 288 284 281 281 280 279 278 277 276 276 275 273 268 263 258 255 253 253 255 257 257 257 258 261 263 266 268 269 271 273
304 304 304 304 303 303 303 303 302 299 295 293 291 288 285 283 283 284 285 285 286 287 289 290 291 293 294 294 292 291 291 290 287 284 282 280 277 276 277 277 277 276 277 277 278 277 274 269 263 258 256 256 257 258 258 259 260 262 264 266 268 268 269
304 303 304 305 304 304 304 303 302 300 298 296 293 290 287 285 285 286 286 286 286 288 290 292 294 296 295 293 291 290 289 287 286 284 280 274 271 272 273 274 275 276 278 280 282 283 283 281 276 270 264 260 259 259 259 259 260 260 262 264 266 267 267
303 303 304 305 305 305 304 303 302 301 300 298 295 292 289 287 286 285 285 285 287 289 292 295 297 297 296 294 292 290 288 288 287 281 275 271 269 268 268 270 273 278 281 283 285 286 285 284 281 276 270 265 262 261 261 262 262 262 264 265 265 266 266
303 303 304 305 305 305 304 303 303 303 301 299 296 293 290 288 285 284 283 285 287 291 294 296 297 298 297 295 293 291 290 289 287 284 281 277 272 269 270 273 276 279 281 283 285 285 284 282 280 276 272 269 267 267 268 269 269 269 269 267 265 265 265
304 303 304 305 305 305 304 304 304 304 303 300 298 295 292 287 283 281 281 284 287 292 295 296 297 297 296 294 293 292 290 288 287 287 286 283 278 275 276 276 277 279 282 284 285 285 283 281 278 276 274 273 273 274 275 276 275 274 272 271 269 267 266
304 303 304 305 305 304 305 305 307 307 305 303 301 298 294 288 283 281 282 284 286 289 291 292 294 295 295 294 292 290 288 287 287 288 287 285 282 279 278 278 279 281 283 284 286 286 284 280 278 276 276 275 276 277 279 279 279 278 278 277 276 273 269
304 304 304 304 304 305 306 308 309 310 309 306 302 297 292 287 284 282 281 281 282 283 285 288 291 292 290 288 285 284 285 286 286 287 288 287 284 280 279 279 280 282 284 286 288 289 287 283 280 277 276 277 278 280 282 282 282 282 282 280 276 272 267
304 304 305 305 305 306 307 309 311 311 310 306 301 295 290 286 283 280 278 277 278 279 282 285 287 285 282 280 279 280 281 282 283 284 285 285 284 281 280 279 280 281 283 285 286 287 286 284 280 277 277 279 280 281 283 284 284 284 282 277 272 268 264
305 305 305 305 306 306 307 309 311 310 309 308 304 300 295 291 286 282 278 277 276 277 281 284 284 283 282 283 283 283 282 281 281 281 281 282 281 278 276 276 276 278 279 280 282 283 283 282 279 277 278 279 280 283 286 285 283 281 277 272 268 266 265
305 304 303 304 305 305 307 309 310 311 313 314 312 310 307 302 298 293 287 284 283 284 286 288 287 286 287 288 288 287 286 285 284 283 283 284 282 279 276 274 274 275 277 279 280 282 283 281 279 278 279 280 282 286 287 281 274 272 271 269 267 266 263
306 305 305 305 306 308 310 312 313 315 317 318 316 315 313 310 308 303 298 297 298 298 297 293 290 289 290 292 292 291 290 288 287 286 285 285 285 283 279 275 275 276 277 278 279 280 281 281 279 279 279 279 284 287 281 270 265 265 264 265 268 268 261
307 306 306 307 308 309 311 312 313 315 317 317 315 312 310 308 307 303 302 304 306 304 300 295 292 291 292 293 294 294 292 291 290 289 287 285 284 283 280 276 274 275 276 278 278 279 280 280 279 279 278 280 286 285 271 258 258 258 257 262 269 268 263
305 304 304 305 306 307 308 309 310 312 314 314 313 310 307 305 303 301 302 307 308 304 299 296 293 292 293 293 294 295 294 294 293 292 290 287 285 284 282 277 274 274 276 277 277 277 278 278 277 276 276 281 286 281 262 251 252 253 254 260 266 268 269
304 302 302 302 303 305 306 307 308 310 312 312 312 309 306 304 302 301 302 306 305 302 299 297 295 293 293 292 293 294 293 293 292 291 290 288 286 285 283 279 275 274 275 276 276 276 276 275 274 273 276 282 285 276 258 249 248 247 250 255 259 264 270
303 300 299 299 301 302 303 304 306 309 310 311 311 308 304 303 304 304 304 303 302 300 299 297 295 293 291 290 290 291 291 291 291 290 289 288 285 284 283 281 276 273 273 274 274 274 274 273 272 272 276 282 283 272 257 250 247 244 245 249 254 260 265
305 300 299 299 299 300 301 302 304 306 308 309 308 306 303 304 305 305 303 302 302 300 299 297 295 293 291 289 289 290 290 291 291 291 290 288 285 283 282 280 277 273 272 272 272 272 272 271 270 272 277 283 282 271 257 251 249 246 243 244 248 253 257
308 304 301 300 299 299 301 302 304 306 307 308 308 306 305 306 307 306 304 303 303 301 300 299 298 295 293 291 290 290 291 291 292 291 290 288 286 282 280 279 277 273 271 271 271 271 270 269 269 272 278 282 282 273 260 252 249 248 245 243 244 245 248